User: anonymous   Login
Location: Aiyekoto
(8.4333°N, 4.3667°E)
Time: 10:28:43
(UTC+00:00)
Language:

Cosmos 1782 - Orbit

View from above orbital plane
View from above orbital plane
View from above satellite
View from above satellite

Ground track
Ground track

The orbit data is extracted from the following two-line orbital elements,

1 16986U 86074A   21131.57811955  .00000261  00000-0  15218-4 0  9994
2 16986  82.5050 174.5542 0011896 134.9031 225.3165 15.07527330864203
Epoch (UTC): 11 May 2021 13:52:29
Eccentricity: 0.0011896
inclination: 82.5050°
perigee height: 535 km
apogee height: 552 km
right ascension of ascending node: 174.5542°
argument of perigee: 134.9031°
revolutions per day: 15.07527330
mean anomaly at epoch: 225.3165°
orbit number at epoch: 86420

The dashed part of the orbit path shows where the satellite is in the earth's shadow,  

DLR